Погода в Стрелковом

Украина / Херсонская область     45°53′47″N   34°52′47″E
темп.,
°C
ветер,
м/с
пор.,
м/с
влажн.,
%
обл.,
%
осадки,
мм/ч
давл.,
гПа
погр.,
м
8 марта, пн
пн823:00+3зюз911630 0.0 1021913
02:00+3зюз911660 0.0 1019811
05:00+3зюз9116824 0.0 1018905
08:00+3юз9117054 0.0 1017842
11:00+5юз8106858 0.0 10161133
14:00+5зюз7118173 0.1 1015876
17:00+5з697790 0.2 1014370
20:00+5зюз7107694 0.3 1015665
9 марта, вт
вт923:00+4з7874100 0.0 1015442
02:00+4ссз4471100 0.0 1015335
05:00+3сз677236 0.0 1016551
08:00+2ссз777268 0.0 1018579
11:00+2сз565770 0.0 1019957
14:00+3зсз564535 0.0 10191293
17:00+4сз66490 0.0 10201471
20:00+3с665332 0.0 10221234
10 марта, ср
ср1023:00+2ссв54586 0.0 1023710
02:00+1ссв43613 0.0 1024659
05:00+1ссв546034 0.0 1024677
08:000св556167 0.0 1024785
11:00+1всв5558100 0.0 1024890
14:00+1всв6661100 0.0 1022894
17:00+1всв7761100 0.0 1021895
20:00+1всв8857100 0.0 10221038
11 марта, чт
чт1123:00+1всв8961100 0.0 10221051
02:00+1всв8863100 0.0 10221228
05:00+1всв9965100 0.0 10221265
08:000св996685 0.0 10241222
11:000всв886213 0.0 10251182
14:00+1всв77577 0.0 10251043
17:00+1всв66560 0.0 1026915
20:00+1в66550 0.0 10271054
12 марта, пт
пт1223:00+2вюв56560 0.0 10281217
02:00+2юв775940 0.0 10271295
05:00+1юв8864100 0.0 10271073
08:00+1юв10106651 0.0 1027871
11:00+2ююв1112640 0.0 1025785
14:00+3ююв11126716 0.0 1024783
17:00+4ююв121370100 0.0 1021754
20:00+4ю111271100 0.0 1021687